Flint, MI

9:35 PM EST on December 12, 2018 (GMT -0500)
Bishop International

Weather History for KFNT - December, 2018

Change the Weather History Date:

Thursday, December 6, 2018

  Actual Average Record
Temperature  
Mean Temperature 29 °F 30 °F  
Max Temperature 32 °F 37 °F 66 °F (1998)
Min Temperature 26 °F 24 °F -6 °F (1926)
Degree Days  
Heating Degree Days 36 34  
Month to date heating degree days 200 200  
Since 1 July heating degree days 1775 1681  
Cooling Degree Days 0 0  
Month to date cooling degree days 0 0  
Year to date cooling degree days 796 531  
Moisture  
Dew Point 23 °F    
Average Humidity 80    
Maximum Humidity 92    
Minimum Humidity 68    
Precipitation  
Precipitation T in 0.07 in 0.91 in (1975)
Month to date precipitation 0.36 0.42  
Year to date precipitation 34.66 29.87  
Snow  
Snow 0.20 in 0.30 in 6.90 in (1962)
Month to date snowfall 0.5 1.8  
Since 1 July snowfall 11.6 4.7  
Snow Depth T in    
Sea Level Pressure  
Sea Level Pressure 30.13 in    
Wind  
Wind Speed 11 mph (West)    
Max Wind Speed 22 mph    
Max Gust Speed 27 mph    
Visibility 9 miles    
Events Rain , Snow    
T = Trace of Precipitation, MM = Missing Value Source: NWS Daily Summary

Daily Weather History Graph

Daily Weather History Graph

Search for Another Location

Airport or City:

Astronomy

Dec. 06, 2018 Rise Set
Actual Time 7:51 AM EST 5:00 PM EST
Civil Twilight 7:19 AM EST 5:32 PM EST
Nautical Twilight 6:43 AM EST 6:07 PM EST
Astronomical Twilight 6:09 AM EST 6:42 PM EST
Moon 6:56 AM EST (12/6) 4:56 PM EST (12/6)
Length of Visible Light 10h 12m
Length of Day
9h 08m
Waning Crescent, 0% of the Moon is Illuminated
Dec 6
Waning Crescent
Dec 7
New
Dec 15
First Quarter
Dec 22
Full
Dec 29
Last Quarter

Hourly Weather History & Observations

Time (EST) Temp. Windchill Dew Point Humidity Pressure Visibility Wind Dir Wind Speed Gust Speed Precip Events Conditions
12:10 AM 27.0 °F 16.1 °F 19.9 °F 75% 30.08 in 10.0 mi SSW 12.7 mph - N/A   Overcast
12:53 AM 27.0 °F 16.7 °F 19.9 °F 75% 30.10 in 10.0 mi SSW 11.5 mph 19.6 mph N/A   Overcast
1:50 AM 28.4 °F 17.5 °F 21.2 °F 74% 30.06 in 10.0 mi SSW 13.8 mph 21.9 mph N/A   Overcast
1:53 AM 28.0 °F 16.1 °F 21.0 °F 75% 30.09 in 10.0 mi SSW 16.1 mph 21.9 mph N/A   Overcast
2:03 AM 28.0 °F 17.0 °F 21.0 °F 75% 30.06 in 10.0 mi SW 13.8 mph 19.6 mph N/A   Overcast
2:21 AM 28.0 °F 19.3 °F 21.9 °F 78% 30.06 in 10.0 mi SW 9.2 mph - N/A   Overcast
2:53 AM 28.9 °F 19.8 °F 23.0 °F 78% 30.09 in 10.0 mi SW 10.4 mph - N/A   Overcast
3:53 AM 30.0 °F 20.5 °F 24.1 °F 79% 30.08 in 10.0 mi SW 11.5 mph - N/A   Overcast
4:53 AM 30.0 °F 20.5 °F 25.0 °F 82% 30.07 in 10.0 mi SW 11.5 mph - N/A   Overcast
5:23 AM 30.0 °F 20.5 °F 25.0 °F 82% 30.03 in 10.0 mi SW 11.5 mph - N/A   Overcast
5:53 AM 30.0 °F 20.5 °F 25.0 °F 82% 30.06 in 10.0 mi SW 11.5 mph - N/A   Overcast
6:53 AM 30.9 °F 22.2 °F 26.1 °F 82% 30.06 in 10.0 mi SSW 10.4 mph - N/A   Overcast
7:53 AM 30.9 °F 21.7 °F 25.0 °F 79% 30.06 in 10.0 mi SSW 11.5 mph - N/A   Overcast
8:53 AM 30.9 °F 23.5 °F 26.1 °F 82% 30.06 in 8.0 mi WSW 8.1 mph - 0.00 in   Overcast
9:53 AM 30.9 °F 22.8 °F 26.1 °F 82% 30.07 in 8.0 mi WSW 9.2 mph - N/A   Overcast
10:36 AM 30.9 °F 22.8 °F 27.0 °F 85% 30.05 in 5.0 mi WSW 9.2 mph - 0.00 in   Overcast
10:53 AM 30.9 °F 22.8 °F 27.0 °F 85% 30.09 in 5.0 mi West 9.2 mph - 0.00 in   Overcast
11:07 AM 30.9 °F 20.7 °F 28.0 °F 89% 30.05 in 1.5 mi West 13.8 mph - 0.00 in Rain Light Freezing Rain
11:34 AM 28.9 °F 18.2 °F 27.0 °F 92% 30.06 in 1.5 mi NNW 13.8 mph - 0.00 in Rain Light Freezing Rain
11:42 AM 28.9 °F 19.2 °F 26.1 °F 89% 30.06 in 1.5 mi NNW 11.5 mph - 0.00 in Rain Light Freezing Rain
11:53 AM 28.0 °F 16.5 °F 26.1 °F 92% 30.10 in 1.5 mi NW 15.0 mph - 0.00 in Rain Light Freezing Rain
11:57 AM 28.0 °F 17.0 °F 26.1 °F 92% 30.07 in 3.0 mi NW 13.8 mph - 0.00 in Rain Light Freezing Rain
12:11 PM 28.0 °F 19.3 °F 25.0 °F 88% 30.07 in 9.0 mi NW 9.2 mph - 0.00 in   Overcast
12:53 PM 28.0 °F 18.1 °F 24.1 °F 85% 30.11 in 9.0 mi NW 11.5 mph - 0.00 in   Overcast
1:19 PM 28.0 °F 18.1 °F 23.0 °F 81% 30.07 in 8.0 mi WNW 11.5 mph - 0.00 in Snow Light Snow
1:53 PM 28.0 °F 17.5 °F 24.1 °F 85% 30.12 in 7.0 mi WNW 12.7 mph - 0.00 in Snow Light Snow
2:41 PM 28.9 °F 17.3 °F 23.0 °F 78% 30.09 in 10.0 mi WNW 16.1 mph - 0.00 in   Overcast
2:53 PM 28.9 °F 17.7 °F 23.0 °F 78% 30.13 in 10.0 mi WNW 15.0 mph - 0.00 in   Overcast
3:40 PM 28.9 °F 16.5 °F 19.9 °F 69% 30.12 in 10.0 mi WNW 18.4 mph - N/A   Mostly Cloudy
3:53 PM 28.9 °F 19.2 °F 21.0 °F 72% 30.16 in 10.0 mi WNW 11.5 mph - N/A   Mostly Cloudy
4:53 PM 28.9 °F 20.4 °F 19.9 °F 69% 30.19 in 10.0 mi WNW 9.2 mph 21.9 mph N/A   Overcast
5:53 PM 28.9 °F 18.2 °F 19.9 °F 69% 30.22 in 10.0 mi WNW 13.8 mph - N/A   Overcast
6:53 PM 28.9 °F 19.8 °F 21.0 °F 72% 30.25 in 10.0 mi NW 10.4 mph - N/A   Overcast
7:53 PM 27.0 °F 18.7 °F 21.9 °F 81% 30.28 in 10.0 mi WNW 8.1 mph - N/A   Overcast
8:53 PM 27.0 °F 18.7 °F 21.9 °F 81% 30.29 in 10.0 mi NW 8.1 mph - N/A   Overcast
9:13 PM 27.0 °F 18.7 °F 21.9 °F 81% 30.27 in 10.0 mi WNW 8.1 mph - N/A   Overcast
9:23 PM 26.1 °F 18.4 °F 21.9 °F 84% 30.28 in 10.0 mi WNW 6.9 mph - N/A   Overcast
9:53 PM 26.1 °F 18.4 °F 21.9 °F 84% 30.32 in 10.0 mi NW 6.9 mph - N/A   Overcast
10:49 PM 26.6 °F 19.1 °F 17.6 °F 69% 30.30 in 10.0 mi North 6.9 mph - N/A   Overcast
10:53 PM 26.1 °F 18.4 °F 17.1 °F 69% 30.34 in 10.0 mi North 6.9 mph - N/A   Overcast
11:53 PM 26.1 °F 20.5 °F 16.0 °F 66% 30.37 in 10.0 mi North 4.6 mph - N/A   Overcast